Погода в Ибрагимовой

Россия / Челябинская область     55°44′41″N   61°10′48″E
темп.,
°C
ветер,
м/с
пор.,
м/с
влажн.,
%
обл.,
%
осадки,
мм/ч
давл.,
гПа
погр.,
м
14 апреля, ср
ср1423:00+8юз410875 0.0 1036162
02:00+7юз368924 0.0 103479
05:00+7зюз349082 0.0 103447
08:00+8з379661 0.0 1034242
11:00+13з357618 0.0 1032468
14:00+17зюз346011 0.0 1031785
17:00+18зюз34566 0.0 1029940
20:00+14зюз227314 0.0 102911
15 апреля, чт
чт1523:00+12юз228323 0.0 102813
02:00+10юз228435 0.0 102719
05:00+9зюз22875 0.0 102711
08:00+11з25845 0.0 1026149
11:00+16з46605 0.0 1025603
14:00+18зюз56385 0.0 10231195
17:00+19з47415 0.0 10211070
20:00+13з346184 0.0 102139
16 апреля, пт
пт1623:00+11з347115 0.0 102049
02:00+9з34780 0.0 102054
05:00+8зсз347837 0.0 102043
08:00+8ссв6991100 0.0 1021491
11:00+6св7884100 0.0 1023656
14:00+7св6775100 0.0 1025875
17:00+7св4773100 0.0 1025908
20:00+6ссв356999 0.0 1025140
17 апреля, сб
сб1723:00+5св237296 0.0 102576
02:00+3св227554 0.0 102536
05:00+2ссв227483 0.0 102442
08:00+3с23661 0.0 1024177
11:00+7ссз45512 0.0 10231112
14:00+10ссз46395 0.0 10221766
17:00+10сз463854 0.0 10212121
20:00+8сз3659100 0.0 1020119
18 апреля, вс
вс1823:00+5сз497150 0.0 1021241
02:00+3зсз5117699 0.0 1020366
05:00+2зсз511804 0.0 1020347
08:00+3зсз612735 0.0 1018914
11:00+5ссз81258100 0.1 10181770
14:00+4с9114698 0.1 10212034
17:00+2ссв10115198 0.1 10251800
20:00−1ссв610452 0.0 10291067